This is the latest recevied weather packets stored in our database for station/object KK7ISX. If no packets are shown the sender has not sent any weather packets the latest 1 day(s).
| Time | Temp. | Humidity | Pressure | Rain* | Wind** | Luminosity | Snow |
|---|---|---|---|---|---|---|---|
| 1778039224 | 20.56° C | 35% | 1009.9 hPa | 0 mm | - | 0 W/m² | - |
| 1778038921 | 21.11° C | 34% | 1009.8 hPa | 0 mm | - | 0 W/m² | - |
| 1778038618 | 21.11° C | 35% | 1009.8 hPa | 0 mm | - | 0 W/m² | - |
| 1778038315 | 21.11° C | 35% | 1009.6 hPa | 0 mm | - | 0 W/m² | - |
| 1778038012 | 21.11° C | 35% | 1009.7 hPa | 0 mm | - | 0 W/m² | - |
| 1778037709 | 21.67° C | 35% | 1009.5 hPa | 0 mm | - | 0 W/m² | - |
| 1778037406 | 21.67° C | 34% | 1009.4 hPa | 0 mm | - | 0 W/m² | - |
| 1778037103 | 21.67° C | 35% | 1009.4 hPa | 0 mm | - | 0 W/m² | - |
| 1778036498 | 22.22° C | 34% | 1009.3 hPa | 0 mm | - | 1 W/m² | - |
| 1778036195 | 22.78° C | 34% | 1009 hPa | 0 mm | - | 2 W/m² | - |
| 1778035891 | 22.78° C | 34% | 1008.9 hPa | 0 mm | - | 4 W/m² | - |
| 1778035589 | 22.78° C | 33% | 1008.6 hPa | 0 mm | - | 6 W/m² | - |
| 1778035284 | 22.78° C | 33% | 1008.6 hPa | 0 mm | - | 9 W/m² | - |
| 1778034981 | 23.33° C | 33% | 1008.5 hPa | 0 mm | - | 12 W/m² | - |
| 1778034375 | 23.89° C | 31% | 1008.5 hPa | 0 mm | - | 19 W/m² | - |
| 1778034073 | 23.89° C | 31% | 1008.5 hPa | 0 mm | - | 23 W/m² | - |
| 1778033771 | 23.89° C | 31% | 1008.4 hPa | 0 mm | - | 27 W/m² | - |
| 1778033468 | 23.89° C | 30% | 1008.3 hPa | 0 mm | - | 31 W/m² | - |
| 1778033165 | 23.89° C | 31% | 1008.2 hPa | 0 mm | - | 36 W/m² | - |
| 1778032560 | 24.44° C | 30% | 1008.2 hPa | 0 mm | - | 46 W/m² | - |
| 1778032256 | 24.44° C | 30% | 1008.1 hPa | 0 mm | - | 56 W/m² | - |
| 1778031954 | 24.44° C | 30% | 1008.2 hPa | 0 mm | - | 65 W/m² | - |
| 1778031649 | 25° C | 30% | 1008.1 hPa | 0 mm | - | 72 W/m² | - |
| 1778031348 | 24.44° C | 30% | 1008.1 hPa | 0 mm | - | 81 W/m² | - |
| 1778031044 | 24.44° C | 30% | 1007.9 hPa | 0 mm | - | 90 W/m² | - |
* Rain latest hour (hover to see other rain measurements)
** Current wind speed in m/s (hover to see current wind gust speed)